Location: Aydie
(43.5695°N, 0.1043°W)
Time: 11:33:32
(UTC+00:00)

Cosmos 44 Rocket - Pass Details

Date: 17 November 2025
Orbit: 637 x 741 km, 65.1° (Epoch: 11 December)

Event Time Altitude Azimuth Distance (km) Brightness Sun altitude
Rises 17:35:49 0° 206° (SSW) 2,969 7.2 -11.4°
Reaches altitude 10° 17:38:05 10° 205° (SSW) 2,076 6.3 -11.8°
Maximum altitude 17:42:46 73° 121° (ESE) 712 3.2 -12.6°
Enters shadow 17:47:10 13° 38° (NE) 1,969 5.2 -13.4°
